Date,TemperatureHighF,TemperatureAvgF,TemperatureLowF,DewpointHighF,DewpointAvgF,DewpointLowF,HumidityHigh,HumidityAvg,HumidityLow,PressureMaxIn,PressureMinIn,WindSpeedMaxMPH,WindSpeedAvgMPH,GustSpeedMaxMPH,PrecipitationSumIn
2014-1-1,26.4,20.2,14.1,14.2,8.8,5.2,79,62,46,30.42,30.23,20,2,20,0.00
2014-1-2,19.7,11.5,0.8,15.8,8.4,-2.7,91,87,77,30.39,29.89,20,2,20,0.00
2014-1-3,13.1,4.8,-0.5,7.7,-0.7,-7.8,88,78,63,30.45,29.76,17,3,21,0.01
2014-1-4,24.3,12.2,-4.7,17.5,3.2,-9.0,83,68,43,30.55,30.31,18,4,22,0.01
2014-1-5,36.6,29.1,21.2,32.3,22.2,12.4,96,76,55,30.35,29.96,17,2,17,0.00
2014-1-6,56.7,40.9,25.1,56.1,37.8,14.3,100,89,62,29.96,29.33,21,4,21,0.28
2014-1-7,25.1,11.1,5.6,15.4,-3.2,-10.4,77,52,39,30.29,29.53,27,7,27,0.00
2014-1-8,19.0,11.8,4.2,4.9,-0.1,-7.2,68,58,48,30.52,30.28,16,3,16,0.00
2014-1-9,29.1,19.2,13.3,12.5,8.1,4.5,81,62,42,30.68,30.47,13,2,13,0.00
2014-1-10,35.5,27.2,12.2,34.4,24.3,8.1,96,89,68,30.63,30.30,11,1,11,0.03
2014-1-11,58.6,48.5,33.7,57.4,47.5,32.6,98,96,95,30.30,29.30,28,3,28,0.35
2014-1-12,52.8,41.6,38.0,51.4,32.5,25.6,95,70,58,29.87,29.30,30,6,30,0.01
2014-1-13,50.1,40.5,28.8,42.7,31.3,24.2,84,71,51,30.15,29.87,25,3,25,0.00
2014-1-14,47.7,45.5,40.9,45.3,43.4,39.3,97,93,84,29.92,29.64,22,3,22,0.17
2014-1-15,41.1,37.5,29.5,39.7,34.0,28.5,96,87,82,30.04,29.78,12,0,12,0.01
2014-1-16,39.3,39.3,39.3,34.3,34.3,34.3,82,82,82,30.04,30.04,0,0,0,0.00
2014-1-17,43.1,40.0,37.1,34.3,29.9,24.8,82,68,49,30.04,29.93,14,2,14,0.00
2014-1-18,40.2,40.2,40.2,25.8,25.8,25.8,56,56,56,29.95,29.95,2,2,0,0.00
2014-1-19,40.2,40.2,40.2,25.8,25.8,25.8,56,56,56,29.95,29.95,2,2,0,0.00
2014-1-20,40.2,40.2,40.2,25.8,25.8,25.8,56,56,56,29.95,29.95,2,2,0,0.00
2014-1-21,40.2,40.2,40.2,25.8,25.8,25.8,56,56,56,29.95,29.95,2,2,0,0.00
2014-1-22,40.2,40.2,40.2,25.8,25.8,25.8,56,56,56,29.95,29.95,2,2,0,0.00
2014-1-23,40.2,10.5,1.4,25.8,0.5,-7.3,66,64,56,30.04,29.95,4,1,4,0.00
2014-1-24,1.7,1.7,1.7,-7.0,-7.0,-7.0,66,66,66,30.04,30.04,1,1,0,0.00
2014-1-25,1.7,1.7,1.7,-7.0,-7.0,-7.0,66,66,66,30.04,30.04,1,1,0,0.00
2014-1-26,1.7,1.7,1.7,-7.0,-7.0,-7.0,66,66,66,30.04,30.04,1,1,0,0.00
2014-1-27,1.7,1.7,1.7,-7.0,-7.0,-7.0,66,66,66,30.04,30.04,1,1,0,0.00
2014-1-28,1.7,1.7,1.7,-7.0,-7.0,-7.0,66,66,66,30.04,30.04,1,1,0,0.00
2014-1-29,1.7,1.7,1.7,-7.0,-7.0,-7.0,66,66,66,30.04,30.04,1,1,0,0.00
2014-1-30,1.7,1.7,1.7,-7.0,-7.0,-7.0,66,66,66,30.04,30.04,1,1,0,0.00
2014-1-31,1.7,1.7,1.7,-7.0,-7.0,-7.0,66,66,66,30.04,30.04,1,1,0,0.00
2014-2-1,1.7,1.7,1.7,-7.0,-7.0,-7.0,66,66,66,30.04,30.04,1,1,0,0.00
2014-2-2,1.7,1.7,1.7,-7.0,-7.0,-7.0,66,66,66,30.04,30.04,1,1,0,0.00
2014-2-3,27.0,6.1,1.7,25.5,-1.2,-7.0,94,71,66,30.31,30.04,1,1,3,0.00
2014-2-4,20.4,20.4,20.4,19.0,19.0,19.0,94,94,94,30.31,30.31,0,0,0,0.00
2014-2-5,20.4,20.4,20.4,19.0,19.0,19.0,94,94,94,30.31,30.31,0,0,0,0.00
2014-2-6,20.4,20.4,20.4,19.0,19.0,19.0,94,94,94,30.31,30.31,0,0,0,0.00
2014-2-7,20.4,20.4,20.4,19.0,19.0,19.0,94,94,94,30.31,30.31,0,0,0,0.00
2014-2-8,20.4,20.4,20.4,19.0,19.0,19.0,94,94,94,30.31,30.31,0,0,0,0.00
2014-2-9,20.4,20.4,20.4,19.0,19.0,19.0,94,94,94,30.31,30.31,0,0,0,0.00
2014-2-10,20.4,20.4,20.4,19.0,19.0,19.0,94,94,94,30.31,30.31,0,0,0,0.00
2014-2-11,20.4,20.4,20.4,19.0,19.0,19.0,94,94,94,30.31,30.31,0,0,0,0.00
2014-2-12,20.4,20.4,20.4,19.0,19.0,19.0,94,94,94,30.31,30.31,0,0,0,0.00
2014-2-13,31.9,20.9,20.4,30.9,19.5,19.0,96,94,94,30.31,29.03,3,0,3,0.00
2014-2-14,32.0,31.8,31.7,31.0,30.8,30.7,96,96,96,29.08,28.89,6,0,6,0.00
2014-2-15,31.8,31.8,31.8,30.8,30.8,30.8,96,96,96,28.89,28.89,0,0,0,0.00
2014-2-16,31.8,27.0,19.6,30.8,18.1,8.8,96,71,46,30.01,28.89,22,4,22,0.00
2014-2-17,28.9,18.3,7.8,9.1,-0.1,-2.7,68,45,26,30.40,30.01,20,3,24,0.00
2014-2-18,27.1,16.6,4.9,25.8,12.1,-2.0,95,83,65,30.40,29.94,14,1,14,0.00
2014-2-19,33.1,27.1,15.7,31.8,25.1,13.8,96,92,79,30.14,29.75,16,1,16,0.00
2014-2-20,48.2,37.5,31.6,32.6,29.3,23.0,95,75,38,30.24,29.87,16,3,16,0.46
2014-2-21,38.9,35.7,33.0,38.0,34.7,32.0,97,96,95,30.18,29.70,11,1,11,0.22
2014-2-22,50.6,40.9,32.6,33.9,29.0,23.4,97,66,35,30.00,29.87,26,3,26,0.00
2014-2-23,48.9,41.7,33.0,30.0,27.7,24.7,78,58,42,30.01,29.79,17,2,17,0.00
2014-2-24,38.2,29.9,21.8,29.5,14.4,6.8,74,52,39,29.99,29.76,31,5,31,0.00
2014-2-25,26.3,20.8,15.9,11.1,8.8,6.0,70,59,47,30.03,29.91,22,3,22,0.00
2014-2-26,27.7,18.0,8.6,12.4,4.0,-7.4,74,55,32,29.98,29.79,19,3,19,0.00
2014-2-27,27.8,16.1,4.9,21.3,3.8,-6.0,87,59,34,29.97,29.61,28,3,28,0.00
2014-2-28,22.0,13.1,6.1,-0.9,-5.8,-10.0,63,43,25,30.48,29.97,17,3,17,0.00
2014-3-1,34.6,20.9,3.3,22.6,8.4,-5.0,73,59,33,30.49,30.12,18,2,18,0.00
2014-3-2,39.4,32.7,29.2,25.6,21.0,17.8,69,62,54,30.12,29.98,16,2,16,0.00
2014-3-3,29.1,19.1,9.3,18.8,4.4,-3.7,70,53,39,30.33,30.01,11,2,11,0.00
2014-3-4,16.4,13.3,2.5,-0.5,-2.7,-4.1,76,49,40,30.42,30.32,5,1,5,0.00
2014-3-5,24.9,18.0,16.4,18.9,2.9,-2.6,83,53,42,30.41,30.35,7,1,7,0.00
2014-3-6,21.8,21.8,21.8,17.5,17.5,17.5,83,83,83,30.41,30.41,2,2,0,0.00
2014-3-7,37.0,27.7,9.8,24.8,18.9,5.7,83,70,46,30.45,30.08,8,1,8,0.00
2014-3-8,52.3,41.7,30.7,29.1,25.7,24.7,78,57,37,30.08,29.72,8,2,10,0.00
2014-3-9,51.8,51.8,51.8,26.4,26.4,26.4,37,37,37,29.72,29.72,5,5,0,0.00
2014-3-10,51.8,51.8,51.8,26.4,26.4,26.4,37,37,37,29.72,29.72,5,5,0,0.00
2014-3-11,51.8,51.8,51.8,26.4,26.4,26.4,37,37,37,29.72,29.72,5,5,0,0.00
2014-3-12,51.8,51.8,51.8,26.4,26.4,26.4,37,37,37,29.72,29.72,5,5,0,0.00
2014-3-13,51.8,51.7,14.5,26.4,26.3,-0.7,50,37,37,30.00,29.72,6,5,6,0.02
2014-3-14,19.7,17.2,9.5,10.7,6.3,-0.7,73,62,50,30.21,30.00,13,3,13,0.00
2014-3-15,19.7,19.7,19.7,8.8,8.8,8.8,62,62,62,30.21,30.21,4,4,0,0.00
2014-3-16,19.7,19.7,19.7,8.8,8.8,8.8,62,62,62,30.21,30.21,4,4,0,0.00
2014-3-17,19.7,19.7,19.7,8.8,8.8,8.8,62,62,62,30.21,30.21,4,4,0,0.00
2014-3-18,19.7,19.7,19.7,8.8,8.8,8.8,62,62,62,30.21,30.21,4,4,0,0.00
2014-3-19,19.7,19.7,19.7,8.8,8.8,8.8,62,62,62,30.21,30.21,4,4,0,0.00
2014-3-20,19.7,19.7,19.7,8.8,8.8,8.8,62,62,62,30.21,30.21,4,4,0,0.00
2014-3-21,19.7,19.7,19.7,8.8,8.8,8.8,62,62,62,30.21,30.21,4,4,0,0.00
2014-3-22,54.3,34.2,19.7,40.1,20.8,8.8,71,58,40,30.21,29.69,29,5,30,0.00
2014-3-23,39.2,33.7,24.5,25.5,17.1,5.0,73,52,34,30.08,29.92,21,3,21,0.00
2014-3-24,31.0,22.7,14.0,6.6,1.6,-1.4,54,40,25,30.21,30.07,19,2,19,0.00
2014-3-25,35.7,26.9,14.6,19.1,10.5,5.8,75,51,33,30.18,29.93,16,2,16,0.00
2014-3-26,33.2,28.6,21.7,18.8,10.7,-0.8,66,48,31,30.07,29.65,30,6,34,0.00
2014-3-27,43.6,29.8,16.2,18.0,5.1,-1.8,54,36,20,30.36,30.07,21,4,24,0.00
2014-3-28,56.0,43.3,32.6,48.2,36.5,17.6,94,77,53,30.28,29.98,24,5,24,0.06
2014-3-29,51.9,44.1,38.8,48.0,40.3,37.3,96,87,67,30.25,29.99,16,3,16,0.89
2014-3-30,39.7,37.9,34.6,38.9,37.0,33.6,97,96,95,29.99,29.65,19,3,19,2.29
2014-3-31,38.7,35.4,32.6,34.9,32.6,29.3,96,90,75,30.04,29.72,17,3,17,0.81
2014-4-1,54.4,41.8,30.0,35.2,30.7,26.6,92,66,46,30.13,30.03,14,1,14,0.00
2014-4-2,59.0,44.1,30.9,37.6,31.8,24.3,88,64,41,30.15,30.03,13,2,13,0.00
2014-4-3,55.7,45.5,35.6,35.6,27.3,23.0,84,51,32,30.15,30.05,15,2,15,0.00
2014-4-4,47.5,39.9,33.8,35.0,31.5,28.9,94,73,53,30.18,29.90,12,2,12,0.15
2014-4-5,49.4,40.8,35.5,41.3,33.3,24.0,96,77,47,29.97,29.73,30,4,30,0.19
2014-4-6,56.9,42.5,30.3,27.3,23.4,19.6,76,50,24,30.22,29.97,18,3,18,0.00
2014-4-7,58.1,46.7,34.0,40.4,28.2,17.3,93,52,25,30.25,29.89,14,1,15,0.03
2014-4-8,63.2,52.1,42.3,57.1,47.2,33.4,96,84,55,29.90,29.32,25,2,25,0.42
2014-4-9,56.6,46.6,37.5,38.0,28.1,8.8,85,53,25,30.00,29.54,25,4,25,0.00
2014-4-10,59.1,45.9,31.1,34.8,23.6,11.3,62,43,22,30.17,30.00,22,5,24,0.00
2014-4-11,66.6,56.2,47.6,51.7,42.5,34.2,85,61,43,30.05,29.92,21,4,21,0.01
2014-4-12,67.1,54.9,42.0,46.4,38.2,30.7,95,59,27,30.23,29.98,17,2,18,0.06
2014-4-13,69.8,55.7,44.8,54.5,43.6,34.1,91,65,37,30.27,30.02,17,2,17,0.04
2014-4-14,71.2,66.9,58.1,58.1,56.2,51.8,85,69,62,30.03,29.95,21,7,21,0.00
2014-4-15,71.2,62.3,61.3,57.7,57.7,57.5,88,85,62,29.95,29.87,20,7,20,0.00
2014-4-16,61.3,53.9,34.1,57.7,45.9,15.6,88,76,36,30.57,29.87,13,5,13,0.38
2014-4-17,34.1,34.1,34.1,19.6,19.6,19.6,55,55,55,30.56,30.56,0,0,0,0.00
2014-4-18,34.1,34.1,34.1,19.6,19.6,19.6,55,55,55,30.56,30.56,0,0,0,0.00
2014-4-19,57.4,39.1,34.1,31.9,22.1,19.6,55,51,37,30.56,30.27,9,1,9,0.00
2014-4-20,56.7,56.7,56.7,30.7,30.7,30.7,37,37,37,30.27,30.27,3,3,0,0.00
2014-4-21,56.7,56.7,56.7,30.7,30.7,30.7,37,37,37,30.27,30.27,3,3,0,0.00
2014-4-22,56.7,56.7,56.7,30.7,30.7,30.7,37,37,37,30.27,30.27,3,3,0,0.00
2014-4-23,56.7,56.7,56.7,30.7,30.7,30.7,37,37,37,30.27,30.27,3,3,0,0.00
2014-4-24,56.7,56.7,56.7,30.7,30.7,30.7,37,37,37,30.27,30.27,3,3,0,0.00
2014-4-25,56.7,56.6,48.9,31.1,30.7,30.3,49,37,37,30.27,29.85,4,3,4,0.00
2014-4-26,48.8,48.2,48.2,31.6,31.4,30.5,52,52,49,29.85,29.84,4,1,4,0.00
2014-4-27,48.2,48.2,48.2,31.4,31.4,31.4,52,52,52,29.84,29.84,1,1,0,0.00
2014-5-8,66.4,56.4,42.8,55.0,44.0,32.6,89,65,33,30.20,30.08,4,0,16,0.00
2014-5-9,56.3,54.6,51.3,54.4,52.1,49.0,96,91,85,30.25,30.10,1,0,6,0.09
2014-5-10,79.4,66.2,56.3,64.3,60.5,54.0,96,84,50,30.10,29.76,10,3,24,0.00
2014-5-11,76.9,67.6,59.0,59.7,43.2,31.9,91,47,20,30.04,29.80,8,4,21,0.00
2014-5-12,84.4,71.4,54.9,58.5,45.8,40.3,68,43,24,30.11,29.96,6,2,18,0.00
2014-5-13,68.9,52.5,44.5,57.9,42.8,38.7,81,70,54,30.35,30.04,6,1,22,0.00
2014-5-14,71.9,56.8,42.9,50.5,44.7,37.4,87,67,41,30.35,30.25,12,1,12,0.00
2014-5-15,75.5,65.6,58.7,64.5,59.7,48.8,93,82,66,30.30,30.20,16,1,16,0.00
2014-5-16,67.7,63.6,62.2,63.0,61.4,59.7,96,93,83,30.20,29.97,20,2,20,0.28
2014-5-17,71.3,63.8,53.7,62.9,52.5,40.5,96,70,38,30.08,29.83,15,2,26,0.49
2014-5-18,67.3,57.8,47.7,48.3,40.5,32.7,73,54,33,30.13,30.01,17,1,17,0.00
2014-5-19,63.7,56.4,46.9,46.9,38.4,34.3,77,52,35,30.12,30.02,18,2,18,0.00
2014-5-20,73.2,63.8,50.3,47.0,43.0,38.3,85,49,31,30.05,29.93,22,1,22,0.00
2014-5-21,60.8,48.8,47.3,50.2,45.4,44.7,91,88,68,29.99,29.95,7,0,7,0.00
2014-5-22,61.9,58.8,50.4,55.3,53.4,47.9,95,82,78,29.96,29.89,7,1,7,0.00
2014-5-23,61.9,59.0,49.9,55.3,54.0,48.6,96,84,79,30.00,29.89,6,1,6,0.11
2014-5-24,64.1,55.3,48.6,54.8,51.1,47.5,100,87,60,30.07,29.97,9,0,9,0.12
2014-5-25,70.3,59.4,50.5,60.0,54.3,49.4,97,84,56,30.11,30.01,10,0,11,0.00
2014-5-26,76.8,66.0,53.8,63.0,56.6,51.2,92,73,50,30.02,29.81,15,2,19,0.02
2014-5-27,74.5,62.7,47.6,62.6,54.8,46.5,96,77,59,29.95,29.81,11,1,11,0.12
2014-5-28,49.1,46.8,41.0,48.2,46.0,39.8,97,97,96,30.24,29.90,13,0,13,0.13
2014-5-29,65.3,52.1,37.3,49.8,41.9,36.5,98,72,37,30.28,30.16,9,0,9,0.00
2014-5-30,70.3,57.4,45.1,58.0,49.9,43.4,96,78,45,30.18,29.98,13,1,15,0.19
2014-5-31,64.9,55.2,43.3,53.9,47.7,36.0,96,78,44,30.32,30.06,13,1,13,0.00
2014-6-1,75.5,61.2,42.3,51.7,45.2,39.3,94,61,31,30.36,30.24,10,0,10,0.00
2014-6-2,80.8,68.4,53.5,58.2,51.1,43.1,76,56,35,30.25,30.00,15,2,15,0.00
2014-6-3,82.8,67.8,53.5,66.2,57.5,48.8,93,71,51,30.03,29.86,12,1,12,0.00
2014-6-4,67.5,60.9,53.5,63.1,57.1,47.2,96,88,64,29.91,29.77,7,0,7,0.13
2014-6-5,62.1,59.6,55.5,60.3,58.5,54.6,97,96,94,29.80,29.66,8,0,8,0.39
2014-6-6,72.2,62.9,55.1,58.2,55.1,53.5,97,77,53,29.90,29.72,17,2,17,0.00
2014-6-7,80.9,68.4,55.1,63.2,57.0,52.1,92,69,42,29.96,29.87,9,1,10,0.00
2014-6-8,83.3,71.7,56.1,62.8,57.6,52.8,93,65,37,29.97,29.85,9,0,9,0.00
2014-6-9,78.2,67.3,59.3,63.2,58.4,54.7,89,74,47,30.00,29.90,13,2,13,0.00
2014-6-10,79.8,67.7,61.5,69.8,63.0,56.7,95,86,67,30.11,29.93,14,1,14,0.00
2014-6-11,69.8,62.3,57.5,59.5,54.7,51.2,90,77,55,30.18,30.10,12,0,13,0.00
2014-6-12,66.9,61.3,56.8,62.9,57.8,51.9,96,88,79,30.18,30.06,7,0,7,0.01
2014-6-13,63.3,61.1,59.5,62.4,60.0,58.1,97,96,93,30.06,29.80,7,0,7,0.65
2014-6-14,72.2,63.8,57.7,67.1,59.7,51.8,98,87,67,29.94,29.81,14,1,14,0.01
2014-6-15,74.0,67.1,54.3,59.3,56.2,51.1,89,69,58,30.01,29.93,14,3,14,0.00
2014-6-16,79.5,73.4,63.5,58.8,57.2,47.7,72,58,33,30.08,29.99,10,2,11,0.00
2014-6-17,69.8,66.3,60.2,63.0,59.4,54.0,89,79,70,30.07,30.04,11,0,13,0.00
2014-6-18,83.1,76.3,66.6,68.6,65.0,60.5,95,70,50,29.87,29.75,15,3,19,0.10
2014-6-19,80.9,80.9,80.9,60.5,60.5,60.5,50,50,50,29.86,29.86,4,4,0,0.00
2014-6-20,80.9,74.5,58.7,60.5,52.8,42.8,62,47,33,29.99,29.86,15,3,15,0.00
2014-6-21,58.7,58.7,58.7,45.3,45.3,45.3,61,61,61,29.99,29.99,0,0,0,0.00
2014-6-22,58.7,58.7,58.7,45.3,45.3,45.3,61,61,61,29.99,29.99,0,0,0,0.00
2014-6-23,58.7,58.7,58.7,45.3,45.3,45.3,61,61,61,29.99,29.99,0,0,0,0.00
2014-6-24,58.7,58.7,58.7,45.3,45.3,45.3,61,61,61,29.99,29.99,0,0,0,0.00
2014-6-25,58.7,58.7,58.7,45.3,45.3,45.3,61,61,61,29.99,29.99,0,0,0,0.00
2014-6-26,58.7,58.7,58.7,45.3,45.3,45.3,61,61,61,29.99,29.99,0,0,0,0.00
2014-6-27,58.7,58.7,58.7,45.3,45.3,45.3,61,61,61,29.99,29.99,0,0,0,0.00
2014-6-28,58.7,58.7,58.7,45.3,45.3,45.3,61,61,61,29.99,29.99,0,0,0,0.00
2014-6-29,60.4,60.0,58.7,56.4,54.3,45.3,87,82,61,30.25,29.99,4,0,4,0.00
2014-6-30,60.3,60.3,60.3,56.4,56.4,56.4,87,87,87,30.25,30.25,0,0,0,0.00
2014-7-1,60.3,60.3,60.3,56.4,56.4,56.4,87,87,87,30.25,30.25,0,0,0,0.00
2014-7-2,86.0,67.6,60.3,75.5,61.9,56.4,87,83,70,30.25,29.85,13,1,13,0.00
2014-7-3,82.5,82.5,82.5,73.3,73.3,73.3,74,74,74,29.89,29.89,3,3,0,0.00
2014-7-4,82.5,82.5,82.5,73.3,73.3,73.3,74,74,74,29.89,29.89,3,3,0,0.00
2014-7-5,82.5,82.5,82.5,73.3,73.3,73.3,74,74,74,29.89,29.89,3,3,0,0.00
2014-7-6,82.5,82.5,82.5,73.3,73.3,73.3,74,74,74,29.89,29.89,3,3,0,0.00
2014-7-7,82.5,82.5,82.5,73.3,73.3,73.3,74,74,74,29.89,29.89,3,3,0,0.00
2014-7-8,82.5,82.5,82.5,73.3,73.3,73.3,74,74,74,29.89,29.89,3,3,0,0.00
2014-7-9,82.5,82.5,82.5,73.3,73.3,73.3,74,74,74,29.89,29.89,3,3,0,0.00
2014-7-10,82.5,82.5,82.5,73.3,73.3,73.3,74,74,74,29.89,29.89,3,3,0,0.00
2014-7-11,82.5,79.0,65.3,73.3,69.6,58.3,84,73,53,30.23,29.89,3,2,0,0.00
2014-7-12,85.5,73.4,59.8,66.5,61.3,55.6,96,69,43,30.24,30.10,0,0,0,0.00
2014-7-13,83.6,73.8,65.6,69.7,65.0,59.5,95,75,56,30.13,29.90,4,0,4,0.13
2014-7-14,83.3,74.3,69.1,74.1,71.0,67.6,97,90,70,29.91,29.85,11,0,11,0.23
2014-7-15,83.5,76.0,70.4,76.8,73.0,68.9,97,91,74,29.86,29.74,16,0,16,0.17
2014-7-16,76.3,71.8,67.9,72.5,69.4,61.5,97,92,80,29.86,29.76,14,0,14,0.02
2014-7-17,80.7,70.4,62.5,63.5,59.8,56.3,88,71,44,30.09,29.86,5,0,5,0.00
2014-7-18,78.8,68.6,57.5,62.3,58.1,53.4,95,72,43,30.24,30.09,0,0,0,0.00
2014-7-19,75.2,67.2,58.5,66.3,62.2,57.0,96,85,67,30.29,30.22,5,0,5,0.00
2014-7-20,76.0,66.4,58.4,62.1,58.8,55.2,96,78,51,30.24,30.14,8,0,8,0.00
2014-7-21,80.2,67.7,57.2,64.1,60.2,56.0,97,79,49,30.24,30.14,6,0,6,0.00
2014-7-22,88.8,75.8,62.9,71.8,66.4,61.1,95,75,47,30.17,29.99,15,1,15,0.00
2014-7-23,89.5,78.1,69.1,75.2,70.4,65.6,92,78,59,29.99,29.74,18,4,18,0.02
2014-7-24,76.1,70.8,63.0,69.0,66.4,60.8,96,86,72,29.93,29.75,10,0,10,0.00
2014-7-25,79.8,68.4,54.6,62.7,57.9,52.1,94,72,47,30.01,29.92,8,0,8,0.00
2014-7-26,81.9,71.1,60.8,65.5,61.3,56.2,92,73,44,30.00,29.88,17,1,17,0.00
2014-7-27,76.6,70.5,65.6,72.4,68.1,63.4,96,92,79,29.91,29.66,23,1,23,0.17
2014-7-28,81.6,72.5,66.0,72.7,67.9,62.1,98,86,69,29.69,29.44,20,1,20,0.20
2014-7-29,76.0,67.8,59.7,63.2,58.4,55.3,90,73,53,29.96,29.56,17,2,17,0.00
2014-7-30,76.3,66.3,55.2,60.4,56.1,52.1,95,72,44,30.07,29.96,9,1,9,0.00
2014-7-31,80.0,69.4,57.8,64.8,59.7,54.8,96,73,49,30.17,30.06,17,1,17,0.00
2014-8-1,82.5,71.9,62.5,70.7,66.1,61.0,96,83,62,30.23,30.17,12,1,12,0.00
2014-8-2,69.7,67.6,65.8,66.7,63.3,60.3,95,86,75,30.23,30.18,9,0,9,0.02
2014-8-3,68.3,60.8,58.3,61.2,58.3,57.2,96,92,78,30.18,30.15,0,0,6,0.00
2014-8-4,73.9,60.2,58.5,68.3,58.8,57.4,96,95,82,30.15,30.01,8,0,8,0.00
2014-8-5,74.7,72.2,64.4,68.1,67.0,63.2,97,84,79,30.04,30.01,8,0,8,0.00
2014-8-6,74.7,74.7,74.7,67.7,67.7,67.7,79,79,79,30.04,30.04,0,0,0,0.00
2014-8-7,74.7,74.7,74.7,67.7,67.7,67.7,79,79,79,30.04,30.04,0,0,0,0.00
2014-8-8,74.7,60.2,59.1,67.7,54.9,53.6,83,83,79,30.04,29.96,7,1,7,0.00
2014-8-9,59.1,59.1,59.1,53.9,53.9,53.9,83,83,83,29.97,29.97,1,1,0,0.00
2014-8-10,59.1,59.1,59.1,53.9,53.9,53.9,83,83,83,29.97,29.97,1,1,0,0.00
2014-8-11,59.1,59.1,59.1,53.9,53.9,53.9,83,83,83,29.97,29.97,1,1,0,0.00
2014-8-12,59.1,59.1,59.1,53.9,53.9,53.9,83,83,83,29.97,29.97,1,1,0,0.00
2014-8-13,59.1,59.1,59.1,53.9,53.9,53.9,83,83,83,29.97,29.97,1,1,0,0.00
2014-8-14,72.0,64.6,59.1,56.1,53.8,52.5,83,70,52,29.97,29.80,16,3,16,0.01
2014-8-15,71.1,71.1,71.1,53.6,53.6,53.6,54,54,54,29.81,29.81,5,5,0,0.00
2014-8-16,71.1,71.1,71.1,53.6,53.6,53.6,54,54,54,29.81,29.81,5,5,0,0.00
2014-8-17,71.1,71.1,71.1,53.6,53.6,53.6,54,54,54,29.81,29.81,5,5,0,0.00
2014-8-18,71.1,71.1,71.1,53.6,53.6,53.6,54,54,54,29.81,29.81,5,5,0,0.00
2014-8-19,71.1,71.1,71.1,53.6,53.6,53.6,54,54,54,29.81,29.81,5,5,0,0.00
2014-8-20,71.1,71.1,71.1,53.6,53.6,53.6,54,54,54,29.81,29.81,5,5,0,0.00
2014-8-21,74.7,71.0,66.3,64.1,58.5,53.6,89,66,54,30.11,29.81,8,2,8,0.00
2014-8-22,69.8,64.2,59.8,65.9,61.4,58.6,97,91,76,30.12,30.07,8,0,8,0.11
2014-8-23,70.8,64.0,54.9,61.9,58.9,53.2,95,84,68,30.15,30.10,8,0,8,0.00
2014-8-24,77.6,65.1,52.9,62.5,57.6,51.8,97,79,52,30.17,30.11,9,0,9,0.00
2014-8-25,85.7,72.4,60.0,67.1,62.1,57.6,93,73,44,30.17,30.09,9,0,9,0.00
2014-8-26,86.6,74.0,62.2,70.2,65.1,60.5,95,76,49,30.16,30.03,11,1,11,0.00
2014-8-27,86.8,74.4,64.7,72.6,67.1,61.3,96,79,60,30.06,29.84,15,2,15,0.13
2014-8-28,76.5,69.1,60.7,69.4,59.7,51.2,96,74,50,30.02,29.81,14,1,14,0.01
2014-8-29,74.0,64.0,53.6,58.9,54.6,50.4,90,73,52,30.29,30.01,10,0,10,0.00
2014-8-30,76.3,64.4,52.4,61.4,57.4,51.3,97,80,52,30.34,30.15,13,1,13,0.00
2014-8-31,81.0,72.8,63.1,74.0,69.1,61.2,97,89,76,30.15,29.95,16,2,16,0.45
2014-9-1,85.8,76.3,68.6,74.0,70.4,67.7,98,84,59,30.00,29.90,10,1,11,0.01
2014-9-2,88.2,78.3,69.5,76.2,72.7,68.3,97,84,62,29.94,29.73,11,1,12,0.32
2014-9-3,79.8,72.5,66.3,72.2,63.3,58.6,97,74,50,30.10,29.72,20,2,20,0.00
2014-9-4,83.4,71.3,56.7,63.5,60.3,55.0,95,71,45,30.22,30.10,11,1,11,0.00
2014-9-5,85.7,75.3,64.6,72.3,68.0,62.2,94,79,61,30.17,29.98,13,2,16,0.00
2014-9-6,88.2,77.8,68.4,76.2,71.9,64.3,94,83,65,29.98,29.75,21,3,21,0.00
2014-9-7,75.5,66.5,55.6,64.6,57.7,47.8,97,76,39,30.23,29.92,10,0,11,0.08
2014-9-8,72.8,61.2,51.2,58.2,52.5,49.5,97,75,47,30.39,30.23,11,0,11,0.00
2014-9-9,68.8,59.8,51.5,57.5,53.4,50.1,96,81,56,30.38,30.23,12,0,12,0.00
2014-9-10,72.5,62.4,56.6,61.2,58.1,55.2,97,87,62,30.23,30.05,7,0,8,0.00
2014-9-11,75.1,67.7,60.9,68.8,63.7,56.3,96,87,75,30.06,29.79,14,2,18,0.00
2014-9-12,70.3,61.2,50.8,56.3,52.1,46.8,90,73,52,30.26,29.93,16,1,17,0.00
2014-9-13,64.0,55.3,45.0,56.5,51.6,43.3,97,88,73,30.32,30.13,7,0,9,0.18
2014-9-14,64.6,54.6,46.0,55.8,48.4,44.1,97,81,54,30.26,30.14,11,1,11,0.01
2014-9-15,64.8,52.4,41.0,50.2,45.7,39.8,97,80,52,30.28,30.13,7,0,7,0.00
2014-9-16,64.4,56.1,48.3,57.2,52.1,46.7,96,87,69,30.13,29.97,9,0,9,0.00
2014-9-17,69.3,57.6,47.0,52.9,48.3,43.5,96,74,40,30.05,29.95,11,1,12,0.00
2014-9-18,72.0,59.1,46.7,54.1,49.3,43.9,93,72,46,30.17,29.96,11,1,12,0.00
2014-9-19,58.3,48.8,39.7,43.8,38.3,33.6,92,69,44,30.45,30.17,8,0,8,0.00
2014-9-20,69.4,55.1,37.0,57.4,48.8,35.2,96,81,63,30.43,30.12,18,1,18,0.00
2014-9-21,77.1,67.6,57.7,71.7,65.3,55.7,98,93,80,30.12,29.57,7,0,11,0.21
2014-9-22,68.3,62.1,45.1,66.8,52.4,40.5,97,72,49,30.11,29.55,20,4,25,0.00
2014-9-23,68.6,53.6,41.3,51.3,44.8,39.2,93,75,46,30.46,30.11,10,1,11,0.00
2014-9-24,67.5,56.1,46.4,55.0,50.9,45.4,98,84,59,30.63,30.46,10,0,10,0.00
2014-9-25,59.9,53.5,47.6,54.4,50.7,46.8,97,91,80,30.57,30.27,5,0,7,0.00
2014-9-26,73.7,59.8,49.7,58.4,53.6,48.4,96,82,55,30.27,30.15,10,0,10,0.00
2014-9-27,81.5,65.7,53.1,63.0,57.3,51.9,97,78,40,30.21,30.13,6,0,6,0.00
2014-9-28,84.4,68.5,55.8,66.5,61.3,55.0,98,80,52,30.18,29.99,10,1,12,0.00
2014-9-29,75.2,64.6,56.2,65.3,60.4,55.1,97,87,63,30.04,29.93,9,0,11,0.00
2014-9-30,57.1,55.5,54.5,55.7,54.6,53.7,98,97,94,30.07,30.00,6,0,7,0.06
2014-10-1,56.8,55.4,55.1,56.2,54.8,54.4,98,98,98,30.14,30.04,11,0,12,0.45
2014-10-2,55.8,53.2,46.2,55.0,52.4,45.4,98,97,94,30.21,30.13,11,0,12,0.57
2014-10-3,59.8,51.5,43.0,53.3,48.8,42.5,99,91,76,30.17,29.93,9,0,9,0.00
2014-10-4,62.9,56.7,51.9,62.3,55.9,51.1,98,97,96,29.92,29.54,12,0,14,0.33
2014-10-5,59.0,50.9,42.8,56.9,42.9,35.8,96,76,44,29.98,29.58,13,2,15,0.00
2014-10-6,65.9,51.7,39.1,50.5,43.6,37.5,96,77,47,30.17,29.99,9,1,15,0.00
2014-10-7,72.5,61.6,47.3,61.8,56.0,46.1,98,83,54,30.16,29.98,25,2,25,0.00
2014-10-8,71.2,62.9,55.9,61.4,54.1,43.2,96,75,46,29.98,29.71,20,2,20,0.03
2014-10-9,63.8,53.7,45.0,45.2,40.7,36.7,86,63,42,30.03,29.89,23,2,23,0.00
2014-10-10,59.7,51.2,43.8,43.9,41.2,38.7,89,70,51,30.16,30.03,14,2,14,0.00
2014-10-11,49.1,44.7,40.7,47.5,43.3,39.9,97,95,89,30.17,30.09,3,0,3,0.25
2014-10-12,60.6,47.0,37.9,45.9,41.4,37.1,98,83,50,30.33,30.16,8,0,8,0.01
2014-10-13,61.4,50.9,39.0,54.3,46.8,37.6,98,87,71,30.39,30.28,15,1,15,0.00
2014-10-14,74.6,65.4,55.7,65.4,60.9,53.4,96,86,68,30.28,30.15,14,2,18,0.00
2014-10-15,77.4,68.1,59.8,68.9,64.7,58.9,98,90,69,30.16,29.96,19,1,19,0.00
2014-10-16,70.1,67.2,59.3,69.2,66.1,58.5,97,96,95,29.96,29.68,11,0,11,0.81
2014-10-17,71.0,61.8,56.3,59.9,56.4,52.6,98,84,55,29.70,29.62,18,1,18,0.00
2014-10-18,68.4,59.4,53.5,60.5,55.7,49.0,97,88,65,29.68,29.50,15,1,15,0.12
2014-10-19,53.7,48.7,40.0,49.0,38.1,28.0,88,67,49,29.99,29.62,22,3,22,0.01
2014-10-20,56.3,43.9,31.6,41.2,33.7,27.3,92,68,44,30.09,29.98,15,2,15,0.00
2014-10-21,62.1,51.2,41.5,55.3,48.0,40.1,96,89,75,30.02,29.91,7,0,7,0.00
2014-10-22,52.1,49.1,47.2,51.5,48.3,46.4,98,97,95,30.04,29.82,24,2,24,1.05
2014-10-23,51.2,48.6,45.9,50.7,48.1,45.4,98,98,97,29.86,29.64,16,1,16,1.46
2014-10-24,51.2,48.6,45.0,48.2,45.9,42.2,100,91,82,29.77,29.69,13,1,13,0.05
2014-10-25,62.8,51.7,41.3,47.8,43.8,39.1,94,76,46,29.80,29.51,16,2,16,0.00
2014-10-26,55.3,50.3,43.6,48.2,42.2,38.9,87,74,58,29.73,29.47,17,1,17,0.00
2014-10-27,60.4,50.8,45.0,43.2,40.8,39.4,82,70,49,30.04,29.73,2,0,2,0.00
2014-10-28,68.8,52.3,39.6,57.0,47.4,37.8,100,85,61,30.09,29.95,0,0,0,0.00
2014-10-29,71.7,56.3,47.6,61.4,52.1,44.6,99,87,61,29.95,29.77,0,0,0,0.09
2014-10-30,55.9,47.2,38.1,44.6,40.1,35.9,92,77,57,30.01,29.90,0,0,0,0.00
2014-10-31,52.0,44.4,37.2,42.7,39.0,35.5,96,82,67,30.07,29.98,0,0,0,0.00
2014-11-1,44.7,40.7,37.0,41.4,37.4,33.9,100,88,74,29.98,29.81,1,0,1,0.50
2014-11-2,41.1,38.4,36.7,35.8,28.0,16.0,94,68,42,29.87,29.67,2,0,2,0.00
2014-11-3,50.7,42.0,32.1,33.4,22.4,14.1,65,47,25,30.09,29.87,0,0,0,0.00
2014-11-4,61.3,51.7,39.3,42.5,33.6,27.6,72,51,34,30.16,30.00,0,0,0,0.00
2014-11-5,63.7,54.3,42.4,47.2,42.1,36.4,82,64,44,30.14,29.97,0,0,0,0.00
2014-11-6,47.9,45.0,42.4,45.5,42.2,37.0,98,90,76,30.13,29.52,4,0,4,0.46
2014-11-7,47.9,42.5,37.5,44.9,36.8,27.9,98,81,65,29.83,29.49,13,0,13,0.01
2014-11-8,47.6,38.4,30.6,31.6,26.9,23.3,82,64,43,30.00,29.83,11,0,11,0.00
2014-11-9,53.5,43.4,33.3,38.4,34.5,30.8,91,72,51,30.04,29.89,0,0,0,0.00
2014-11-10,58.6,43.8,31.6,37.6,33.9,29.6,100,71,40,30.23,30.03,0,0,0,0.00
2014-11-11,62.3,48.8,33.1,53.2,45.1,31.8,100,88,67,30.22,29.98,8,0,9,0.00
2014-11-12,62.9,52.9,39.9,56.2,48.6,32.4,98,86,64,30.04,29.85,2,0,5,0.00
2014-11-13,49.0,41.3,32.5,35.7,29.8,27.6,95,65,44,30.11,29.98,0,0,0,0.10
2014-11-14,40.6,34.1,29.5,32.8,27.5,20.4,97,78,51,30.13,29.93,6,0,6,0.20
2014-11-15,38.0,30.1,23.6,23.3,20.0,16.8,90,67,46,30.38,30.13,0,0,0,0.00
2014-11-16,39.9,33.1,23.9,29.6,24.0,18.3,80,69,51,30.42,30.15,13,0,13,0.00
2014-11-17,43.6,36.8,34.1,43.1,35.2,28.4,98,94,70,30.15,29.46,10,0,10,1.45
2014-11-18,43.2,32.4,23.1,42.7,19.8,6.4,98,61,39,29.96,29.49,22,1,22,0.00
2014-11-19,33.4,26.0,20.0,16.1,10.5,6.9,60,52,40,30.19,29.96,0,0,0,0.00
2014-11-20,44.6,34.4,26.9,23.8,19.8,14.0,71,56,39,30.10,29.78,0,0,0,0.00
2014-11-21,32.8,27.1,21.7,18.6,12.8,7.8,79,55,42,30.46,29.94,0,0,0,0.00
2014-11-22,42.5,31.5,17.9,24.8,14.8,8.1,78,52,25,30.47,30.10,0,0,0,0.00
2014-11-23,58.5,46.5,37.7,42.3,32.6,24.4,79,59,50,30.18,30.09,9,1,15,0.00
2014-11-24,63.1,55.3,37.3,61.8,52.9,31.8,97,92,80,30.10,29.59,24,3,24,0.51
2014-11-25,62.0,54.1,41.6,56.5,41.0,29.0,96,64,36,30.14,29.70,9,0,9,0.00
2014-11-26,44.2,37.6,32.1,34.6,31.7,30.6,97,81,60,30.23,29.75,7,0,7,0.21
2014-12-16,35.9,32.1,25.8,34.0,30.5,24.7,97,94,90,30.19,29.95,0,0,6,0.11
2014-12-17,46.7,40.2,34.4,44.6,37.9,33.3,98,92,81,29.95,29.73,6,1,18,0.53
2014-12-18,39.5,37.2,33.7,33.3,30.7,29.0,94,77,70,29.90,29.75,8,5,25,0.00
2014-12-19,34.9,31.7,25.5,29.1,24.9,21.3,84,76,70,30.17,29.90,4,2,17,0.00
2014-12-20,33.9,28.2,21.5,26.4,23.5,19.4,93,83,69,30.34,30.17,1,0,6,0.00
2014-12-21,31.6,30.3,28.8,28.9,27.5,26.1,92,89,86,30.39,30.31,0,0,5,0.00
2014-12-22,38.8,34.5,30.7,35.8,31.9,28.0,97,90,82,30.43,30.30,1,0,6,0.00
2014-12-23,43.0,40.0,36.1,42.5,39.5,35.3,98,98,97,30.31,30.17,13,1,13,0.21
2014-12-24,41.2,39.7,38.2,40.9,39.3,37.7,99,98,98,30.18,29.58,6,0,9,0.49
2014-12-25,59.1,49.8,40.6,58.7,42.0,30.8,99,76,50,30.00,29.48,30,5,30,0.16
2014-12-26,47.0,40.7,34.1,33.3,31.1,28.7,82,69,57,30.19,29.99,24,3,24,0.00
2014-12-27,50.3,41.4,36.5,37.2,33.1,29.6,85,72,59,30.25,30.04,12,1,12,0.00
2014-12-28,48.9,43.7,35.6,43.8,35.9,27.5,92,74,65,30.04,29.79,23,3,23,0.01
2014-12-29,39.4,33.3,27.5,27.8,21.6,14.2,79,63,45,30.24,30.02,9,0,10,0.00
2014-12-30,29.0,23.2,18.2,14.9,7.0,-8.7,66,51,21,30.39,30.24,8,0,8,0.00
2014-12-31,27.6,19.4,14.8,11.3,7.9,5.2,73,61,39,30.36,30.16,0,0,0,0.00
2015-1-1,31.2,24.2,14.8,16.9,9.8,6.5,76,54,40,30.16,29.96,0,0,0,0.00
2015-1-2,38.4,32.4,28.6,21.7,17.8,14.3,60,54,46,30.49,29.98,0,0,0,0.00